STARLINK-36522, 67461

Orbit data source: Space-Track

STARLINK-36522, 67461 is a payload satellite owned by SpaceX/Seattle (US) in LEO that was launched on Wed, 14 Jan 2026 UTC via an FALCON 9 launch vehicle from the Air Force Eastern Test Range (AFETR). Payload-class satellites include a variety of spacecraft equipped with specific instruments for various scientific and technological missions. These include communications satellites like Starlink; space stations such as the ISS; scientific satellites like the Hubble; Earth observation satellites from companies like Planet Labs, Umbra, and HawkEye 360; GPS; miniature CubeSats for education and research; and military/defense satellites.

Loading next visibility...
Identifier
67461, 2026-008S
Orbit
LEO
Country
Flag of USUS
Related business
Manufacturer
SpaceX/Seattle
Mission
Operational Commercial Communications
Bus & Motor
STARLINK V2MO, Unknown motor
Mass
575 kg wet, ~530 kg dry
Launch date (UTC)
2026-01-14 (5 months ago)
Launch vehicle
FALCON 9
Launch site
Air Force Eastern Test Range (AFETR)
Object type
Payload
Rocket body
Debris
Shape & HBR
Box + 2 Pan, 17.7 m
Radar Cross Section
36.964 m², Large (>1 m²)

Expand to show TLE details & history
Last TLE update: 21 hours ago

TLE from 21 hours ago
0 STARLINK-36522
1 67461U 26008S   26170.96380229  .00016949  00000-0  62380-3 0  9996
2 67461  43.0023 347.6424 0000836 268.8948  91.1808 15.27592020 25210
Epoch: 2026-06-19T23:07Z
TLE epoch observation values (Epoch: 2026-06-19T23:07:52.517Z)
Latitude
-0.00003°
Longitude
92.48831°
Altitude
482.801 km
Speed
7.626 km/s
True Right ascension
23h 10m 34s
True Declination
0° 00' 00"
Sunlit
Object was in daylight at epoch
Visualization orbit readout
Latitude
Unknown
Longitude
Unknown
Altitude
Unknown
Speed
Unknown
Apparent Right ascension
Unknown
Apparent Declination
Unknown
Sunlit
N/A
Visualization observer readout
Local Sidereal Time
07:18:46
Azimuth
Unknown
Elevation
Unknown
Doppler factor
Unknown
Orbital elements
Apogee altitude
485.532 km
Perigee altitude
484.384 km
Semi-major axis
6,863.095 km
Eccentricity
0.00008
Inclination
43.0023°
RAAN
347.6424°
Arg. of periapsis
268.8948°
True anomaly
91.19038°
Mean anomaly
91.1808°
Eccentric anomaly
91.18559°
Mean motion
3.81736 °/min
Orbital period
94.31 mins
BSTAR
0.0006238
Loading maneuver chart data...
Computing Atmospheric mass density...
Loading historical data...
Loading historical data...
Loading historical data...
Loading historical data...
Loading historical data...
Loading historical data...
Loading historical data...

Documentation

Showing up to 5 results
|